Location: Jackson
(42.2460°N, 84.4010°W)
Time: 18:45:46
(UTC-04:00)

Courier 1B Rocket - Pass Details

Date: 10 February 2026
Orbit: 920 x 1201 km, 28.2° (Epoch: 12 March)

Event Time Altitude Azimuth Distance (km) Brightness Sun altitude
Rises 01:21:36 0° 249° (WSW) 3,849 - -61.4°
Reaches altitude 10° 01:24:43 10° 237° (WSW) 2,941 - -61.2°
Maximum altitude 01:30:35 27° 183° (S) 2,040 - -60.9°
Drops below altitude 10° 01:36:42 10° 130° (SE) 3,082 - -60.4°
Sets 01:40:04 0° 118° (ESE) 4,069 - -60.2°
